When you browse on this site, cookies collect data to enhance your experience and personalize the content and advertising you see.
Visit our Privacy Policy to learn more. By continuing to use the site, you agree to this use of cookies and data.
  • In United Kingdom
  • List of Countries
  • For 7 days
  • Water Temperature
  • Satellite Maps
  • Weather Map
  • Weather Widgets
  • user-avatar
    Login

    Hourly Weather Shurci

    Today, 25 March, Monday

    Time Temperature Precipitation Wind Pressure Humidity
    00:00 +14°C° 0 mm 4 mps 722 mmHg 31%
    01:00 +14°C° 0 mm 4 mps 722 mmHg 32%
    02:00 +14°C° 0 mm 4 mps 722 mmHg 34%
    03:00 +13°C° 0 mm 4 mps 722 mmHg 34%
    04:00 +13°C° 0 mm 4 mps 722 mmHg 35%
    05:00 +13°C° 0 mm 4 mps 722 mmHg 35%
    06:00 +14°C° 0 mm 4 mps 722 mmHg 35%
    07:00 +14°C° 0 mm 4 mps 723 mmHg 35%
    08:00 +15°C° 0 mm 4 mps 723 mmHg 35%
    09:00 +17°C° 0 mm 5 mps 723 mmHg 31%
    10:00 +20°C° 0 mm 5 mps 724 mmHg 27%
    11:00 +22°C° 0 mm 5 mps 724 mmHg 23%
    12:00 +23°C° 0 mm 5 mps 724 mmHg 22%
    13:00 +25°C° 0 mm 5 mps 724 mmHg 21%
    14:00 +26°C° 0 mm 4 mps 724 mmHg 20%
    15:00 +25°C° 0 mm 4 mps 723 mmHg 20%
    16:00 +25°C° 0 mm 5 mps 723 mmHg 21%
    17:00 +25°C° 0 mm 5 mps 723 mmHg 22%
    18:00 +22°C° 0 mm 5 mps 722 mmHg 24%
    19:00 +21°C° 0 mm 5 mps 722 mmHg 26%
    20:00 +19°C° 0 mm 5 mps 722 mmHg 29%
    21:00 +17°C° 0 mm 5 mps 722 mmHg 29%
    22:00 +17°C° 0 mm 5 mps 722 mmHg 30%
    23:00 +16°C° 0 mm 5 mps 722 mmHg 30%

    Tomorrow, 26 March, Tuesday

    Time Temperature Precipitation Wind Pressure Humidity
    00:00 +16°C° 0 mm 5 mps 722 mmHg 30%
    01:00 +16°C° 0 mm 5 mps 722 mmHg 29%
    02:00 +16°C° 0 mm 5 mps 722 mmHg 28%
    03:00 +16°C° 0 mm 5 mps 722 mmHg 28%
    04:00 +15°C° 0 mm 5 mps 722 mmHg 28%
    05:00 +15°C° 0 mm 4 mps 722 mmHg 28%
    06:00 +15°C° 0 mm 4 mps 722 mmHg 28%
    07:00 +17°C° 0 mm 4 mps 722 mmHg 28%
    08:00 +18°C° 0 mm 4 mps 722 mmHg 28%
    09:00 +20°C° 0 mm 5 mps 722 mmHg 24%
    10:00 +22°C° 0 mm 5 mps 722 mmHg 21%
    11:00 +26°C° 0 mm 5 mps 723 mmHg 17%
    12:00 +27°C° 0 mm 5 mps 722 mmHg 16%
    13:00 +27°C° 0 mm 5 mps 722 mmHg 15%
    14:00 +28°C° 0 mm 6 mps 722 mmHg 14%
    15:00 +28°C° 0 mm 5 mps 721 mmHg 15%
    16:00 +28°C° 0 mm 5 mps 721 mmHg 16%
    17:00 +28°C° 0 mm 5 mps 720 mmHg 17%
    18:00 +26°C° 0 mm 5 mps 720 mmHg 19%
    19:00 +23°C° 0 mm 5 mps 720 mmHg 21%
    20:00 +21°C° 0 mm 4 mps 720 mmHg 24%
    21:00 +21°C° 0 mm 5 mps 720 mmHg 24%
    22:00 +21°C° 0 mm 5 mps 720 mmHg 24%
    23:00 +21°C° 0 mm 5 mps 720 mmHg 24%

    Day after tomorrow, 27 March, Wednesday

    Time Temperature Precipitation Wind Pressure Humidity
    00:00 +21°C° 0 mm 5 mps 720 mmHg 26%
    01:00 +21°C° 0 mm 5 mps 720 mmHg 28%
    02:00 +21°C° 0 mm 5 mps 720 mmHg 30%
    03:00 +21°C° 0 mm 4 mps 720 mmHg 32%
    04:00 +20°C° 0 mm 4 mps 720 mmHg 34%
    05:00 +20°C° 0 mm 4 mps 720 mmHg 36%
    06:00 +20°C° 0 mm 4 mps 720 mmHg 37%
    07:00 +20°C° 0 mm 4 mps 720 mmHg 38%
    08:00 +21°C° 0 mm 4 mps 720 mmHg 39%
    09:00 +22°C° 0 mm 5 mps 721 mmHg 36%
    10:00 +25°C° 0 mm 5 mps 721 mmHg 32%
    11:00 +27°C° 0 mm 5 mps 721 mmHg 28%
    12:00 +26°C° 0.1 mm 5 mps 720 mmHg 32%
    13:00 +25°C° 0.1 mm 5 mps 720 mmHg 36%
    14:00 +23°C° 0.1 mm 5 mps 720 mmHg 39%
    15:00 +24°C° 0 mm 6 mps 719 mmHg 39%
    16:00 +24°C° 0 mm 6 mps 719 mmHg 39%
    17:00 +24°C° 0 mm 6 mps 719 mmHg 39%
    18:00 +23°C° 0.1 mm 5 mps 720 mmHg 43%
    19:00 +22°C° 0.1 mm 3 mps 720 mmHg 47%
    20:00 +21°C° 0.1 mm 2 mps 721 mmHg 50%
    21:00 +20°C° 0.7 mm 3 mps 721 mmHg 56%
    22:00 +19°C° 0.7 mm 3 mps 721 mmHg 61%
    23:00 +19°C° 0.7 mm 4 mps 721 mmHg 66%

    28 March, Thursday

    Time Temperature Precipitation Wind Pressure Humidity
    00:00 +18°C° 0.3 mm 4 mps 721 mmHg 67%
    01:00 +18°C° 0.3 mm 4 mps 721 mmHg 68%
    02:00 +18°C° 0.3 mm 3 mps 721 mmHg 69%
    03:00 +18°C° 0.2 mm 3 mps 721 mmHg 69%
    04:00 +18°C° 0.2 mm 3 mps 721 mmHg 70%
    05:00 +18°C° 0.2 mm 2 mps 721 mmHg 70%
    06:00 +18°C° 0.2 mm 2 mps 722 mmHg 69%
    07:00 +18°C° 0.2 mm 2 mps 722 mmHg 68%
    08:00 +19°C° 0.2 mm 2 mps 723 mmHg 67%
    09:00 +20°C° 0 mm 3 mps 723 mmHg 60%
    10:00 +22°C° 0 mm 4 mps 723 mmHg 54%
    11:00 +23°C° 0 mm 5 mps 723 mmHg 47%
    12:00 +25°C° 0 mm 4 mps 723 mmHg 44%
    13:00 +26°C° 0 mm 4 mps 722 mmHg 41%
    14:00 +27°C° 0 mm 4 mps 722 mmHg 39%
    15:00 +27°C° 0 mm 4 mps 721 mmHg 38%
    16:00 +27°C° 0 mm 4 mps 720 mmHg 38%
    17:00 +27°C° 0 mm 4 mps 720 mmHg 37%
    18:00 +26°C° 0 mm 5 mps 720 mmHg 39%
    19:00 +23°C° 0 mm 5 mps 720 mmHg 41%
    20:00 +22°C° 0 mm 5 mps 719 mmHg 43%
    21:00 +21°C° 0 mm 5 mps 719 mmHg 42%
    22:00 +21°C° 0 mm 4 mps 719 mmHg 42%
    23:00 +21°C° 0 mm 4 mps 719 mmHg 41%

    29 March, Friday

    Time Temperature Precipitation Wind Pressure Humidity
    00:00 +20°C° 0 mm 3 mps 719 mmHg 39%
    01:00 +20°C° 0 mm 3 mps 719 mmHg 37%
    02:00 +20°C° 0 mm 2 mps 718 mmHg 36%
    03:00 +20°C° 0.1 mm 2 mps 719 mmHg 39%
    04:00 +20°C° 0.1 mm 2 mps 719 mmHg 42%
    05:00 +19°C° 0.1 mm 2 mps 719 mmHg 45%
    06:00 +20°C° 0 mm 2 mps 720 mmHg 44%
    07:00 +20°C° 0 mm 2 mps 720 mmHg 43%
    08:00 +21°C° 0 mm 1 mps 721 mmHg 43%
    09:00 +22°C° 0 mm 1 mps 721 mmHg 41%
    10:00 +23°C° 0 mm 1 mps 722 mmHg 39%
    11:00 +24°C° 0 mm 1 mps 722 mmHg 38%
    12:00 +24°C° 0 mm 1 mps 721 mmHg 37%
    13:00 +25°C° 0 mm 1 mps 721 mmHg 36%
    14:00 +26°C° 0 mm 1 mps 720 mmHg 35%
    15:00 +26°C° 0 mm 1 mps 720 mmHg 35%
    16:00 +26°C° 0 mm 1 mps 719 mmHg 35%
    17:00 +25°C° 0 mm 1 mps 718 mmHg 36%
    18:00 +24°C° 0.2 mm 2 mps 718 mmHg 42%
    19:00 +23°C° 0.2 mm 2 mps 718 mmHg 49%
    20:00 +21°C° 0.2 mm 2 mps 718 mmHg 55%
    21:00 +19°C° 0.2 mm 4 mps 718 mmHg 63%
    22:00 +17°C° 0.2 mm 5 mps 719 mmHg 71%
    23:00 +16°C° 0.2 mm 6 mps 719 mmHg 79%

    30 March, Saturday

    Time Temperature Precipitation Wind Pressure Humidity
    00:00 +15°C° 3.5 mm 5 mps 720 mmHg 80%
    01:00 +15°C° 3.5 mm 5 mps 720 mmHg 82%
    02:00 +14°C° 3.5 mm 4 mps 721 mmHg 84%
    03:00 +14°C° 2 mm 5 mps 722 mmHg 84%
    04:00 +13°C° 2 mm 5 mps 722 mmHg 83%
    05:00 +13°C° 2 mm 5 mps 723 mmHg 83%
    06:00 +13°C° 2.2 mm 5 mps 724 mmHg 84%
    07:00 +13°C° 2.2 mm 4 mps 724 mmHg 84%
    08:00 +12°C° 2.2 mm 4 mps 725 mmHg 85%
    09:00 +13°C° 0.8 mm 3 mps 725 mmHg 83%
    10:00 +13°C° 0.8 mm 3 mps 726 mmHg 80%
    11:00 +14°C° 0.8 mm 2 mps 726 mmHg 78%
    12:00 +14°C° 0.1 mm 3 mps 726 mmHg 73%
    13:00 +16°C° 0.1 mm 3 mps 726 mmHg 68%
    14:00 +17°C° 0.1 mm 3 mps 726 mmHg 63%
    15:00 +17°C° 0 mm 3 mps 726 mmHg 61%
    16:00 +17°C° 0 mm 4 mps 725 mmHg 60%
    17:00 +17°C° 0 mm 4 mps 725 mmHg 58%
    18:00 +17°C° 0 mm 3 mps 725 mmHg 62%
    19:00 +16°C° 0 mm 3 mps 725 mmHg 66%
    20:00 +14°C° 0 mm 3 mps 725 mmHg 70%
    21:00 +13°C° 0 mm 3 mps 725 mmHg 70%
    22:00 +13°C° 0 mm 3 mps 725 mmHg 69%
    23:00 +13°C° 0 mm 3 mps 725 mmHg 69%
    Show more